[[{"header":{"parameterUnit":"m.s-1","parameterCategory":1,"la1":30.2991,"la2":30.254,"lo1":-89.0895,"lo2":-89.0444,"dy":0.0017,"dx":0.0017,"nx":28,"ny":28,"refTime":"2024-05-20T21:00:00:Z","depth":0,"parameterNumber":2,"parameterNumberName":"U-component_of_WINDS"},"data":[0,0,0,0,0,0,0,0,0,0,0,0,0,0,0,0,0,0,0,0,0,0,0,0,0,0,0,0,0,0,0,0,0,0,0,0,0,0,0,0,0,0,0,0,0,0,0,0,0,0,0,0,0,0,0,0,0,0,-4.067,-4.067,0,-4.0681,-4.0681,-4.0681,-4.0571,-4.0567,-4.0564,-4.0562,-4.0576,-4.0579,-4.0582,0,0,0,0,0,0,0,0,0,0,0,0,0,-4.0555,-4.0558,-4.067,-4.067,-4.067,-4.0681,-4.0681,-4.0681,-4.0571,-4.0567,-4.0564,-4.056,-4.0574,-4.0578,-4.0582,0,0,0,0,0,0,0,0,0,0,0,0,0,-4.059,-4.0558,-4.067,-4.0616,-4.0612,-4.0681,-4.0681,-4.0681,-4.0572,-4.0567,-4.0563,-4.0558,-4.0573,-4.0578,-4.0583,-4.0705,0,0,-4.0597,-4.06,0,0,0,0,0,0,0,0,-4.0588,-4.0594,-4.0624,-4.062,-4.0615,-4.062,-4.0646,-4.0689,-4.0573,-4.0587,-4.0561,-4.0556,-4.0594,-4.0597,-4.0609,-4.0705,-4.0706,-4.0598,-4.0601,-4.0603,-4.0604,0,0,0,0,0,0,0,-4.0585,-4.0593,-4.0674,-4.0625,-4.0619,-4.0592,-4.0592,-4.0653,-4.0616,-4.0585,-4.0577,-4.058,-4.0591,-4.0605,-4.0609,-4.0706,-4.0598,-4.0602,-4.0605,-4.0607,-4.0902,-4.0907,0,0,0,0,0,0,-4.059,-4.0591,-4.0674,-4.0674,-4.059,-4.0598,-4.0598,-4.0623,-4.0615,-4.061,-4.0584,-4.0575,-4.0599,-4.0603,-4.0609,-4.075,-4.0603,-4.0607,-4.061,-4.0898,-4.0904,-4.0909,0,0,0,0,0,0,-4.0588,-4.0598,-4.0673,-4.0631,-4.0638,-4.0605,-4.0634,-4.0625,-4.0639,-4.0614,-4.0607,-4.0605,-4.0595,-4.0602,-4.0681,-4.0749,-4.061,-4.0614,-4.0892,-4.0899,-4.0906,-4.1035,0,0,0,0,0,0,-4.0585,-4.0598,-4.0644,-4.0633,-4.0641,-4.0745,-4.0638,-4.0629,-4.0648,-4.0636,-4.0632,-4.0627,-4.0592,-4.0675,-4.0686,-4.0753,-4.0618,-4.0885,-4.0895,-4.0904,-4.1025,-4.1046,-4.1064,0,0,0,0,0,-4.0581,-4.068,-4.0646,-4.0657,-4.0697,-4.0749,-4.0754,-4.0711,-4.0654,-4.0699,-4.0683,-4.0627,-4.074,-4.0684,-4.0696,-4.0766,-4.0881,-4.0892,-4.0903,-4.1016,-4.1042,-4.1064,0,0,0,0,0,0,-4.07,-4.0678,-4.064,-4.0738,-4.0747,-4.0731,-4.0787,-4.0741,-4.0766,-4.0754,-4.0701,-4.0701,-4.0789,-4.0785,-4.0723,-4.0883,-4.0801,-4.0815,-4.0882,-4.0907,-4.0926,-4.0925,-4.0622,0,0,0,0,0,-4.0738,-4.0782,-4.076,-4.0848,-4.0854,-4.0821,-4.0842,-4.0808,-4.0815,-4.0818,-4.0808,-4.0817,-4.0855,-4.0881,-4.0914,-4.1024,-4.1022,-4.1078,-4.1098,-4.1114,-4.1127,-4.1185,-4.1209,-4.0945,-4.0945,-4.0945,0,0,-4.0816,-4.0809,-4.084,-4.0872,-4.0875,-4.0922,-4.0824,-4.0878,-4.0913,-4.0826,-4.09,-4.0894,-4.0901,-4.0996,-4.1037,-4.0995,-4.1199,-4.1129,-4.1142,-4.1145,-4.1199,-4.1224,-4.1246,-4.0953,-4.0952,-4.095,0,0,-4.0982,-4.0982,-4.1055,-4.106,-4.1065,-4.1041,-4.1059,-4.1051,-4.1042,-4.1116,-4.1052,-4.1093,-4.1159,-4.1166,-4.1179,-4.1349,-4.1299,-4.1362,-4.1465,-4.1522,-4.1543,-4.1561,-4.1621,-4.1644,-4.1375,-4.1375,-4.1375,0,-4.1079,-4.1147,-4.1099,-4.1157,-4.1173,-4.1097,-4.1171,-4.1178,-4.1195,-4.1208,-4.1161,-4.1241,-4.1241,-4.1337,-4.1378,-4.1392,-4.141,-4.1361,-4.1544,-4.1562,-4.1578,-4.1635,-4.1657,-4.1383,-4.1382,-4.1381,-4.138,0,-4.1265,-4.1313,-4.1372,-4.1389,-4.1411,-4.1478,-4.1441,-4.147,-4.1435,-4.1417,-4.1493,-4.149,-4.1521,-4.1541,-4.1508,-4.1633,-4.1607,-4.1553,-4.1468,-4.1611,-4.1664,-4.1685,-4.1393,-4.1391,-4.1389,-4.1387,0,0,-4.1505,-4.1495,-4.1517,-4.1524,-4.1524,-4.1561,-4.1624,-4.1654,-4.168,-4.1694,-4.1746,-4.1804,-4.1754,-4.1768,-4.1735,-4.1785,-4.192,-4.1725,-4.1724,-4.1761,-4.2057,-4.2097,-4.2123,-4.1887,-4.1891,-4.1894,-4.2056,0,-4.1666,-4.1772,-4.1732,-4.1841,-4.1885,-4.1814,-4.1869,-4.1876,-4.1861,-4.1897,-4.1881,-4.1923,-4.1854,-4.1862,-4.1909,-4.1894,-4.1979,-4.1882,-4.1934,-4.1937,-4.1934,-4.215,-4.2192,-4.2345,-4.2076,-4.208,-4.2082,0,-4.1868,-4.189,-4.2004,-4.1996,-4.2013,-4.2063,-4.2087,-4.2122,-4.2129,-4.2115,-4.2132,-4.2088,-4.215,-4.2067,-4.2152,-4.2087,-4.2106,-4.2103,-4.2108,-4.211,-4.2017,-4.2158,-4.2393,-4.2416,-4.2114,-4.2112,-4.2109,0,-4.2031,-4.2089,-4.2164,-4.2172,-4.2166,-4.2203,-4.2202,-4.2204,-4.2224,-4.2246,-4.2259,-4.2288,-4.2304,-4.2328,-4.2294,-4.2236,-4.2384,-4.2298,-4.2374,-4.2375,-4.2407,-4.2405,-4.2648,-4.2422,-4.2421,-4.2421,-4.242,0,-4.2215,-4.2287,-4.2237,-4.2283,-4.2362,-4.2316,-4.2396,-4.2387,-4.239,-4.2433,-4.2375,-4.2417,-4.2369,-4.2408,-4.2382,-4.2456,-4.2464,-4.2454,-4.2446,-4.2459,-4.246,-4.247,-4.2458,-4.2427,-4.2426,-4.2424,-4.2423,0,-4.2409,-4.2379,-4.2456,-4.2444,-4.2443,-4.2501,-4.2491,-4.2534,-4.2515,-4.2572,-4.2582,-4.2554,-4.2596,-4.2564,-4.2606,-4.2588,-4.2686,-4.2664,-4.2684,-4.2677,-4.2754,-4.2747,-4.3011,-4.3043,-4.2798,-4.28,-4.2802,0,-4.2528,-4.2581,-4.2575,-4.26,-4.2602,-4.2643,-4.2664,-4.2621,-4.2645,-4.2656,-4.2698,-4.2735,-4.2762,-4.2833,-4.2817,-4.2849,-4.2826,-4.2916,-4.283,-4.2841,-4.2826,-4.2823,-4.2828,-4.2933,-4.2936,-4.2938,-4.294,0,-4.2741,-4.2723,-4.2754,-4.2781,-4.2807,-4.2827,-4.2841,-4.2865,-4.2821,-4.2852,-4.2893,-4.2915,-4.2957,-4.2995,-4.3021,-4.3021,-4.2974,-4.2968,-4.2987,-4.3,-4.3008,-4.3004,-4.273,-4.2962,-4.2959,-4.2958,-4.2957,-4.2956,-4.29,-4.2944,-4.2946,-4.2984,-4.299,-4.3005,-4.3044,-4.3031,-4.3065,-4.3096,-4.3069,-4.3119,-4.3125,-4.3155,-4.3161,-4.32,-4.3163,-4.3191,-4.3198,-4.3205,-4.3215,-4.3004,-4.3205,-4.3204,-4.3204,-4.3203,-4.3203,0,-4.3109,-4.3107,-4.3142,-4.3164,-4.3193,-4.3146,-4.316,-4.3188,-4.3233,-4.3242,-4.327,-4.3319,-4.3355,-4.3342,-4.3374,-4.3408,-4.3388,-4.3418,-4.3414,-4.3415,-4.3247,-4.3227,-4.3434,-4.3434,-4.3434,-4.3434,-4.3434,-4.3434,-4.3221,-4.3293,-4.3276,-4.3352,-4.3349,-4.3398,-4.341,-4.3424,-4.343,-4.3487,-4.3517,-4.3508,-4.3508,-4.354,-4.3571,-4.3567,-4.3581,-4.3619,-4.3607,-4.345,-4.3427,-4.3405,-4.3386,-4.3623,-4.3623,-4.3771,-4.3772,-4.3773]},{"header":{"parameterUnit":"m.s-1","parameterCategory":1,"la1":30.2991,"la2":30.254,"lo1":-89.0895,"lo2":-89.0444,"dy":0.0017,"dx":0.0017,"nx":28,"ny":28,"refTime":"2024-05-20T21:00:00:Z","depth":0,"parameterNumber":3,"parameterNumberName":"V-component_of_WINDS"},"data":[0,0,0,0,0,0,0,0,0,0,0,0,0,0,0,0,0,0,0,0,0,0,0,0,0,0,0,0,0,0,0,0,0,0,0,0,0,0,0,0,0,0,0,0,0,0,0,0,0,0,0,0,0,0,0,0,0,0,0.5879,0.5879,0,0.5834,0.5834,0.5833,0.5779,0.5778,0.5777,0.5776,0.5733,0.5733,0.5732,0,0,0,0,0,0,0,0,0,0,0,0,0,0.5923,0.5922,0.588,0.5879,0.5878,0.5834,0.5834,0.5833,0.5779,0.5778,0.5777,0.5776,0.5733,0.5733,0.5732,0,0,0,0,0,0,0,0,0,0,0,0,0,0.5894,0.5922,0.588,0.5846,0.5842,0.5834,0.5834,0.5833,0.5779,0.5778,0.5777,0.5775,0.5733,0.5733,0.5732,0.5754,0,0,0.573,0.573,0,0,0,0,0,0,0,0,0.5895,0.5892,0.5851,0.5848,0.5844,0.5811,0.5833,0.5807,0.5779,0.5803,0.5776,0.5775,0.576,0.5757,0.5752,0.5752,0.5751,0.573,0.573,0.573,0.573,0,0,0,0,0,0,0,0.5897,0.5894,0.5862,0.5851,0.5847,0.5834,0.5829,0.5828,0.579,0.5801,0.5797,0.5792,0.5758,0.5752,0.575,0.575,0.573,0.573,0.573,0.5729,0.5768,0.5769,0,0,0,0,0,0,0.5904,0.5896,0.5863,0.586,0.5867,0.5835,0.5828,0.5823,0.5789,0.5783,0.5793,0.579,0.5754,0.5751,0.5749,0.5773,0.573,0.5729,0.5729,0.5767,0.5768,0.577,0,0,0,0,0,0,0.5905,0.5902,0.5865,0.5877,0.5871,0.5835,0.583,0.5823,0.5817,0.5783,0.5777,0.5794,0.5753,0.5749,0.5753,0.5771,0.5729,0.5729,0.5765,0.5767,0.5769,0.5822,0,0,0,0,0,0,0.5907,0.5902,0.5909,0.5877,0.5871,0.587,0.5831,0.5823,0.5816,0.5811,0.5783,0.5777,0.5751,0.5755,0.5753,0.5769,0.5728,0.5763,0.5766,0.5768,0.5819,0.5826,0.5832,0,0,0,0,0,0.5908,0.5927,0.591,0.5906,0.5879,0.5871,0.5867,0.5837,0.5817,0.5825,0.5804,0.5778,0.5769,0.5755,0.5753,0.577,0.5762,0.5765,0.5768,0.5816,0.5824,0.5832,0,0,0,0,0,0,0.5963,0.5922,0.5903,0.5911,0.5895,0.5861,0.587,0.5847,0.5836,0.5832,0.5795,0.579,0.5799,0.5784,0.577,0.579,0.5762,0.5765,0.5799,0.5807,0.5813,0.5817,0.5728,0,0,0,0,0,0.5975,0.5971,0.5936,0.5947,0.5939,0.5906,0.5902,0.588,0.5862,0.5855,0.5833,0.5818,0.5812,0.5808,0.5801,0.5816,0.581,0.5827,0.5833,0.5839,0.5842,0.585,0.5858,0.578,0.578,0.578,0,0,0.6002,0.5979,0.5979,0.5957,0.5942,0.5939,0.5901,0.59,0.5898,0.5855,0.5857,0.5841,0.5822,0.5832,0.5835,0.5821,0.5862,0.5843,0.5847,0.5847,0.5854,0.5862,0.5868,0.5782,0.5781,0.5781,0,0,0.6049,0.6031,0.6038,0.6024,0.6001,0.5979,0.5981,0.5951,0.5939,0.5941,0.5908,0.5906,0.5896,0.5884,0.5876,0.592,0.5896,0.5919,0.5953,0.5962,0.5968,0.5973,0.599,0.5996,0.5922,0.5922,0.5922,0,0.6086,0.6079,0.6046,0.6046,0.6039,0.5998,0.6007,0.5994,0.5971,0.5967,0.595,0.5937,0.5921,0.5928,0.5939,0.5934,0.5936,0.5922,0.5969,0.5974,0.5979,0.5994,0.6,0.5925,0.5924,0.5924,0.5924,0,0.6126,0.6122,0.6131,0.6108,0.6101,0.6106,0.6074,0.6071,0.605,0.6031,0.6034,0.6013,0.6001,0.6001,0.5981,0.6006,0.5998,0.5976,0.5947,0.599,0.6004,0.6009,0.5929,0.5928,0.5927,0.5926,0,0,0.6206,0.6164,0.6168,0.6158,0.613,0.6127,0.6131,0.6118,0.6117,0.6102,0.6105,0.6098,0.6078,0.6069,0.6047,0.6055,0.6092,0.6032,0.6031,0.6045,0.612,0.6137,0.6144,0.6076,0.6077,0.6078,0.6122,0,0.6249,0.6251,0.6221,0.6232,0.6229,0.6192,0.6195,0.6179,0.6161,0.6157,0.6137,0.6133,0.6106,0.6101,0.6106,0.6086,0.6107,0.6083,0.608,0.608,0.6086,0.6151,0.6169,0.6212,0.6127,0.6128,0.6129,0,0.6299,0.6286,0.6297,0.6269,0.6267,0.627,0.6257,0.6253,0.6235,0.6221,0.6212,0.6187,0.619,0.6162,0.6166,0.615,0.6147,0.6138,0.6139,0.6138,0.6107,0.6153,0.6225,0.6232,0.6137,0.6136,0.6135,0,0.6357,0.6343,0.6348,0.634,0.6308,0.6311,0.6298,0.6278,0.6273,0.6262,0.6258,0.6248,0.6242,0.6235,0.6209,0.6191,0.6217,0.6186,0.6207,0.6207,0.6214,0.6214,0.6287,0.6211,0.6211,0.6211,0.6211,0,0.6408,0.6417,0.6373,0.6377,0.6385,0.6351,0.6361,0.6345,0.6328,0.6328,0.6295,0.6296,0.626,0.6258,0.6237,0.6244,0.6242,0.6232,0.6227,0.6235,0.6237,0.6233,0.623,0.6213,0.6212,0.6212,0.6212,0,0.6475,0.6446,0.6449,0.6418,0.6411,0.6419,0.6393,0.6395,0.6375,0.6376,0.6374,0.6344,0.6339,0.6311,0.6301,0.6287,0.6302,0.6291,0.6308,0.6305,0.6327,0.6325,0.6401,0.6409,0.6328,0.6328,0.6329,0,0.651,0.6515,0.6485,0.6482,0.6471,0.6467,0.6461,0.6428,0.6424,0.6404,0.6409,0.6402,0.6394,0.6389,0.6367,0.6359,0.6347,0.6374,0.6346,0.6355,0.6349,0.6349,0.635,0.6381,0.6382,0.6382,0.6383,0,0.6575,0.6561,0.6553,0.6541,0.6535,0.6525,0.6512,0.6512,0.6476,0.6473,0.6467,0.6462,0.6451,0.6445,0.6433,0.6421,0.6397,0.6392,0.6396,0.6406,0.6416,0.6412,0.6326,0.6391,0.639,0.6389,0.6389,0.6389,0.6628,0.6631,0.6611,0.6604,0.6591,0.658,0.658,0.656,0.6555,0.6543,0.6524,0.6522,0.6505,0.6486,0.6476,0.6475,0.6461,0.6467,0.6468,0.6471,0.6476,0.6416,0.6472,0.6472,0.6472,0.6472,0.6472,0,0.6692,0.6677,0.6671,0.6654,0.6649,0.6626,0.6611,0.6608,0.6606,0.6592,0.6585,0.6579,0.6573,0.655,0.6542,0.6546,0.6534,0.6545,0.6544,0.6542,0.6488,0.6486,0.6554,0.6554,0.6554,0.6554,0.6554,0.6554,0.6725,0.673,0.6713,0.6712,0.6697,0.6694,0.6687,0.6678,0.6666,0.6661,0.6655,0.664,0.6623,0.6613,0.6607,0.66,0.6599,0.6614,0.6604,0.6554,0.6546,0.6538,0.6536,0.6613,0.6613,0.6658,0.6658,0.6658]}]]